DW6120 Weather Reports


time (UTC)temp
C
wind
direction
speed
KPH
gust
KPH
rain 1hr
cm
rain 24hr
cm
rain mn
cm
humidity
%
barometer
mb
20260502220003 21 240 9.7 32.2 0.00 0.00 0.00 18 1014.7
20260502214501 21 215 8.0 19.3 0.00 0.00 0.00 19 1015.1
20260502213108 21 242 11.3 24.1 0.00 0.00 0.00 19 1015.4
20260502211558 21 252 14.5 30.6 0.00 0.00 0.00 19 1015.7
20260502210059 20 223 12.9 27.4 0.00 0.00 0.00 20 1015.8
20260502204605 21 238 6.4 27.4 0.00 0.00 0.00 20 1016.0
20260502203100 20 145 8.0 29.0 0.00 0.00 0.00 19 1016.3
20260502201553 20 250 9.7 27.4 0.00 0.00 0.00 20 1016.4
20260502200107 20 243 12.9 27.4 0.00 0.00 0.00 22 1016.4
20260502194604 20 230 11.3 24.1 0.00 0.00 0.00 22 1016.7
20260502193047 20 239 14.5 24.1 0.00 0.00 0.00 22 1016.9
20260502191546 19 244 16.1 29.0 0.00 0.00 0.00 22 1017.2
20260502190044 18 243 12.9 25.7 0.00 0.00 0.00 25 1017.5
20260502184541 19 229 16.1 24.1 0.00 0.00 0.00 25 1017.7
20260502183046 19 215 11.3 20.9 0.00 0.00 0.00 25 1017.9
20260502181536 18 275 8.0 29.0 0.00 0.00 0.00 23 1018.0
20260502163026 15 288 4.8 8.0 0.00 0.00 0.00 33 1019.0
20260502161524 16 175 1.6 6.4 0.00 0.00 0.00 30 1019.0
20260502151512 13 157 1.6 6.4 0.00 0.00 0.00 34 1019.2
20260502123059 7 93 9.7 12.9 0.00 0.00 0.00 42 1018.8
20260502121604 7 94 8.0 12.9 0.00 0.00 0.00 43 1018.8
20260502120113 7 80 4.8 12.9 0.00 0.00 0.00 44 1018.8
20260502114609 7 101 8.0 12.9 0.00 0.00 0.00 44 1018.8
20260502113113 7 107 9.7 12.9 0.00 0.00 0.00 44 1018.8
20260502111603 7 98 6.4 8.0 0.00 0.00 0.00 44 1018.9
20260502110104 7 76 4.8 12.9 0.00 0.00 0.00 44 1019.0
20260502104552 7 92 4.8 11.3 0.00 0.00 0.00 43 1019.1
20260502103111 8 146 3.2 11.3 0.00 0.00 0.00 42 1018.9
20260502101557 8 96 6.4 11.3 0.00 0.00 0.00 42 1018.8
20260502090107 8 94 9.7 14.5 0.00 0.00 0.00 43 1018.8
20260502070035 8 94 8.0 14.5 0.00 0.00 0.00 42 1019.4
20260502064537 8 83 8.0 12.9 0.00 0.00 0.00 43 1019.5
20260502063039 8 123 4.8 9.7 0.00 0.00 0.00 44 1019.4
20260502061529 8 73 8.0 16.1 0.00 0.00 0.00 44 1019.3
20260502060029 8 94 6.4 11.3 0.00 0.00 0.00 46 1019.2
20260502054538 8 95 8.0 12.9 0.00 0.00 0.00 47 1019.2
20260502053029 8 101 8.0 16.1 0.00 0.00 0.00 46 1019.1
20260502051526 8 94 9.7 14.5 0.00 0.00 0.00 47 1019.1
20260502050028 8 98 9.7 12.9 0.00 0.00 0.00 48 1019.1
20260502044528 8 90 6.4 11.3 0.00 0.00 0.00 50 1019.1
20260502043029 8 111 9.7 12.9 0.00 0.00 0.00 48 1019.1
20260502041532 9 145 3.2 6.4 0.00 0.00 0.00 48 1018.9
20260502040031 9 153 1.6 6.4 0.00 0.00 0.00 49 1018.7
20260502034529 10 115 4.8 9.7 0.00 0.00 0.00 47 1018.5
20260502033037 10 80 3.2 14.5 0.00 0.00 0.00 47 1018.3
20260502031528 10 88 3.2 6.4 0.00 0.00 0.00 47 1018.2
20260502030024 11 19 1.6 4.8 0.00 0.00 0.00 44 1018.1
20260502024522 11 360 3.2 9.7 0.00 0.00 0.00 43 1017.8
20260502023022 12 61 3.2 6.4 0.00 0.00 0.00 40 1017.7
20260502021521 13 349 1.6 4.8 0.00 0.00 0.00 36 1017.7
20260502020024 14 26 3.2 11.3 0.00 0.00 0.00 35 1017.7
20260502014524 14 309 6.4 12.9 0.00 0.00 0.00 34 1017.5
20260502013023 15 330 4.8 12.9 0.00 0.00 0.00 35 1017.4
20260502011523 15 286 8.0 14.5 0.00 0.00 0.00 35 1017.3
20260502010025 15 336 8.0 12.9 0.00 0.00 0.00 35 1017.3
20260502004523 15 324 9.7 17.7 0.00 0.00 0.00 35 1017.3
20260502003027 15 311 8.0 22.5 0.00 0.00 0.00 35 1017.3
20260502001525 15 5 8.0 19.3 0.00 0.00 0.00 34 1017.4
20260502000021 15 302 11.3 22.5 0.00 0.00 0.00 34 1017.4
20260501234520 15 24 8.0 17.7 0.00 0.00 0.00 33 1017.5
20260501233020 15 355 11.3 22.5 0.00 0.00 0.00 33 1017.6
20260501231519 15 313 9.7 19.3 0.00 0.00 0.00 33 1017.6
20260501230019 15 310 6.4 17.7 0.00 0.00 0.00 33 1017.6
20260501224521 15 268 9.7 24.1 0.00 0.00 0.00 31 1017.8
20260501223033 15 275 6.4 17.7 0.00 0.00 0.00 31 1017.8
20260501221518 15 21 0.0 16.1 0.00 0.00 0.00 30 1017.9